Weather History for KEMP - August, 2014

Change the Weather History Date:

Monday, August 18, 2014

  Actual Average Record
Temperature  
Mean Temperature 78 °F 78 °F  
Max Temperature 92 °F 90 °F 102 °F (2003)
Min Temperature 63 °F 66 °F 56 °F (2013)
Degree Days  
Heating Degree Days 0 0  
Month to date heating degree days 0 0  
Since 1 June heating degree days 6 8  
Since 1 July heating degree days 2 0  
Cooling Degree Days 13 13  
Month to date cooling degree days 222 245  
Year to date cooling degree days 972 1061  
Since 1 June cooling degree days 796 942  
Growing Degree Days 28 (Base 50)    
Moisture  
Dew Point 66 °F    
Average Humidity 72    
Maximum Humidity 100    
Minimum Humidity 44    
Precipitation  
Precipitation 0.04 in 0.15 in 0.75 in (1997)
Month to date precipitation 3.31 1.77  
Year to date precipitation 16.99 24.56  
Sea Level Pressure  
Sea Level Pressure 29.86 in    
Wind  
Wind Speed 6 mph (SE)    
Max Wind Speed 23 mph    
Max Gust Speed 30 mph    
Visibility 10 miles    
Events Rain , Thunderstorm    
T = Trace of Precipitation, MM = Missing Value Source: NWS Daily Summary

Daily Weather History Graph

Daily Weather History Graph

Search for Another Location

Airport or City:

Trip Planner

Search our weather history database for the weather conditions in past years. The results will help you decide how hot, cold, wet, or windy it might be!

Date:

Astronomy

Aug. 18, 2014 Rise Set
Actual Time 6:42 AM CDT 8:14 PM CDT
Civil Twilight 6:14 AM CDT 8:42 PM CDT
Nautical Twilight 5:40 AM CDT 9:15 PM CDT
Astronomical Twilight 5:04 AM CDT 9:51 PM CDT
Moon 12:51 AM CDT (8/18) 3:17 PM CDT (8/18)
Length of Visible Light 14h 28m
Length of Day
13h 32m
Last Quarter, 38% of the Moon is Illuminated
Aug 18
Last Quarter
Aug 25
New
Sep 2
First Quarter
Sep 8
Full
Sep 15
Last Quarter

Hourly Weather History & Observations

Time (CDT) Temp. Heat Index Dew Point Humidity Pressure Visibility Wind Dir Wind Speed Gust Speed Precip Events Conditions
12:53 AM 73.9 °F - 66.9 °F 79% 30.02 in 10.0 mi NW 17.3 mph 34.5 mph N/A   Mostly Cloudy
1:43 AM 68.0 °F - 64.0 °F 87% 30.03 in 10.0 mi WNW 8.1 mph - 0.03 in Thunderstorm Mostly Cloudy
2:23 AM 69.1 °F - 63.0 °F 81% 29.98 in 10.0 mi Calm Calm - N/A Thunderstorm Thunderstorm
2:38 AM 68.0 °F - 64.0 °F 87% 29.94 in 10.0 mi East 11.5 mph - 0.00 in Rain Light Rain
2:53 AM 66.9 °F - 64.0 °F 90% 29.88 in 10.0 mi SE 13.8 mph - 0.01 in Rain Light Rain
3:53 AM 66.0 °F - 64.0 °F 93% 29.83 in 10.0 mi SSE 9.2 mph - 0.00 in   Clear
4:53 AM 64.9 °F - 63.0 °F 93% 29.86 in 10.0 mi Calm Calm - N/A   Clear
5:53 AM 64.0 °F - 62.1 °F 93% 29.86 in 10.0 mi East 3.5 mph - N/A   Clear
6:53 AM 64.0 °F - 62.1 °F 93% 29.86 in 10.0 mi East 4.6 mph - N/A   Clear
7:53 AM 64.9 °F - 64.0 °F 97% 29.87 in 10.0 mi Calm Calm - N/A   Clear
8:53 AM 71.1 °F - 66.0 °F 84% 29.88 in 10.0 mi Calm Calm - N/A   Clear
9:53 AM 75.9 °F - 66.0 °F 71% 29.89 in 10.0 mi NE 5.8 mph - N/A   Clear
10:53 AM 78.1 °F - 64.9 °F 64% 29.89 in 10.0 mi Calm Calm - N/A   Clear
11:53 AM 81.0 °F 82.7 °F 64.9 °F 58% 29.89 in 10.0 mi Variable 5.8 mph - N/A   Clear
12:53 PM 84.9 °F 87.1 °F 66.0 °F 53% 29.86 in 10.0 mi East 4.6 mph - N/A   Clear
1:53 PM 86.0 °F 88.2 °F 66.0 °F 51% 29.86 in 10.0 mi Variable 3.5 mph - N/A   Clear
2:53 PM 89.1 °F 92.9 °F 68.0 °F 50% 29.84 in 10.0 mi SSE 5.8 mph - N/A   Clear
3:53 PM 90.0 °F 93.6 °F 68.0 °F 48% 29.83 in 10.0 mi SSE 6.9 mph - N/A   Clear
4:53 PM 91.0 °F 94.3 °F 66.9 °F 45% 29.81 in 10.0 mi SSW 5.8 mph - N/A   Clear
5:53 PM 90.0 °F 94.5 °F 69.1 °F 50% 29.78 in 10.0 mi SE 11.5 mph - N/A   Clear
6:53 PM 89.1 °F 92.9 °F 68.0 °F 50% 29.77 in 10.0 mi SSE 10.4 mph - N/A   Clear
7:53 PM 84.9 °F 88.8 °F 69.1 °F 59% 29.77 in 10.0 mi SE 6.9 mph - N/A   Clear
8:53 PM 80.1 °F 82.9 °F 69.1 °F 69% 29.77 in 10.0 mi SE 8.1 mph - N/A   Clear
9:53 PM 77.0 °F - 69.1 °F 76% 29.78 in 10.0 mi SSE 5.8 mph - N/A   Clear
11:53 PM 78.1 °F - 72.0 °F 81% 29.78 in 10.0 mi South 11.5 mph - N/A   Clear